Location: Burleson Fire Department Station 2
(32.5391°N, 97.3075°W)
Time: 01:31:49
(UTC+00:00)

NOAA 15 - Pass Details

Date: 21 December 2025
Orbit: 793 x 810 km, 98.5° (Epoch: 20 January)

Event Time Altitude Azimuth Distance (km) Brightness Sun altitude
Rises 00:48:42 0° 159° (SSE) 3,309 7.8 -16.6°
Reaches altitude 10° 00:51:02 10° 156° (SSE) 2,380 7.0 -17.1°
Maximum altitude 00:56:15 67° 75° (ENE) 872 4.5 -18.2°
Drops below altitude 10° 01:01:29 10° 354° (N) 2,384 6.9 -19.2°
Sets 01:03:50 0° 351° (N) 3,316 7.7 -19.7°
